EW6088 Weather Reports


Display with metric or nautical units.
time (UTC)temp
F
wind
direction
speed
MPH
gust
MPH
rain 1hr
in
rain 24hr
in
rain mn
in
humidity
%
barometer
mb
20260508213603 65 144 1.0 4.0 0.00 0.00 0.00 45 1017.0
20260508212703 64 200 1.0 6.0 0.00 0.00 0.00 47 1017.0
20260508211803 65 290 1.0 4.0 0.00 0.00 0.00 48 1016.9
20260508210903 64 180 1.0 6.0 0.00 0.00 0.00 48 1017.2
20260508210003 64 241 2.0 7.0 0.00 0.00 0.00 47 1017.0
20260508205403 65 5 1.0 4.0 0.00 0.00 0.00 46 1017.1
20260508204503 66 82 2.0 7.0 0.00 0.00 0.00 43 1017.2
20260508203603 68 272 1.0 6.0 0.00 0.00 0.00 40 1017.3
20260508202703 67 276 2.0 10.0 0.00 0.00 0.00 43 1017.3
20260508201824 67 169 2.0 8.0 0.00 0.00 0.00 39 1017.7
20260508200903 67 239 2.0 8.0 0.00 0.00 0.00 38 1018.0
20260508200003 67 270 1.0 8.0 0.00 0.00 0.00 37 1018.3
20260508195403 67 182 2.0 8.0 0.00 0.00 0.00 39 1018.1
20260508194524 66 258 2.0 7.0 0.00 0.00 0.00 37 1018.1
20260508193603 66 122 2.0 9.0 0.00 0.00 0.00 36 1018.2
20260508192724 67 115 2.0 9.0 0.00 0.00 0.00 36 1018.4
20260508191803 67 194 2.0 7.0 0.00 0.00 0.00 36 1018.3
20260508190903 66 62 2.0 8.0 0.00 0.00 0.00 37 1018.5
20260508190003 66 292 2.0 9.0 0.00 0.00 0.00 34 1018.7
20260508185403 65 345 2.0 7.0 0.00 0.00 0.00 33 1018.5
20260508184503 65 153 2.0 8.0 0.00 0.00 0.00 35 1018.8
20260508183603 65 133 2.0 9.0 0.00 0.00 0.00 30 1018.8
20260508182703 65 80 2.0 8.0 0.00 0.00 0.00 35 1018.9
20260508181803 64 303 2.0 8.0 0.00 0.00 0.00 37 1019.1
20260508180903 64 110 2.0 10.0 0.00 0.00 0.00 36 1019.2
20260508180003 63 238 2.0 6.0 0.00 0.00 0.00 32 1019.1
20260508175403 63 81 2.0 9.0 0.00 0.00 0.00 33 1019.2
20260508174503 63 84 2.0 6.0 0.00 0.00 0.00 36 1019.3
20260508173603 63 160 2.0 6.0 0.00 0.00 0.00 33 1019.5
20260508172703 63 137 1.0 8.0 0.00 0.00 0.00 38 1019.4
20260508171803 63 304 2.0 8.0 0.00 0.00 0.00 35 1019.8
20260508170903 62 353 2.0 7.0 0.00 0.00 0.00 39 1019.6
20260508170003 62 94 2.0 8.0 0.00 0.00 0.00 38 1020.0
20260508165424 61 331 2.0 8.0 0.00 0.00 0.00 39 1020.0
20260508164503 62 337 2.0 8.0 0.00 0.00 0.00 40 1020.2
20260508163603 61 13 1.0 4.0 0.00 0.00 0.00 40 1019.9
20260508162703 60 152 1.0 7.0 0.00 0.00 0.00 36 1020.1
20260508161824 60 171 1.0 6.0 0.00 0.00 0.00 36 1020.2
20260508160924 59 32 1.0 6.0 0.00 0.00 0.00 36 1020.3
20260508160003 58 90 2.0 6.0 0.00 0.00 0.00 38 1020.4
20260508155403 58 258 2.0 4.0 0.00 0.00 0.00 46 1020.6
20260508154503 58 159 2.0 8.0 0.00 0.00 0.00 44 1020.5
20260508153603 58 192 1.0 4.0 0.00 0.00 0.00 45 1020.6
20260508152703 58 149 1.0 6.0 0.00 0.00 0.00 56 1020.9
20260508151803 58 316 1.0 4.0 0.00 0.00 0.00 57 1020.8
20260508150903 57 82 1.0 2.0 0.00 0.00 0.00 57 1020.8
20260508150004 55 284 1.0 6.0 0.00 0.00 0.00 63 1020.9
20260508145424 54 318 2.0 6.0 0.00 0.00 0.00 59 1020.5
20260508144503 54 259 1.0 7.0 0.00 0.00 0.00 61 1020.8
20260508143603 53 237 1.0 7.0 0.00 0.00 0.00 68 1020.5
20260508142703 52 147 1.0 4.0 0.00 0.00 0.00 68 1020.8
20260508141803 51 153 1.0 4.0 0.00 0.00 0.00 69 1020.6
20260508140903 50 140 1.0 4.0 0.00 0.00 0.00 72 1020.6
20260508140003 48 119 1.0 3.0 0.00 0.00 0.00 74 1020.5
20260508135403 48 147 1.0 3.0 0.00 0.00 0.00 71 1020.6
20260508134503 47 119 1.0 3.0 0.00 0.00 0.00 64 1020.4
20260508133603 46 54 0.0 1.0 0.00 0.00 0.00 66 1020.5
20260508132703 45 69 0.0 2.0 0.00 0.00 0.00 67 1020.2
20260508131803 44 55 0.0 2.0 0.00 0.00 0.00 61 1020.3
20260508130903 44 54 1.0 3.0 0.00 0.00 0.00 68 1020.3
20260508130024 43 60 1.0 3.0 0.00 0.00 0.00 64 1020.2
20260508125403 43 170 0.0 2.0 0.00 0.00 0.00 67 1020.3
20260508124503 42 334 1.0 3.0 0.00 0.00 0.00 68 1020.3
20260508123603 41 41 1.0 3.0 0.00 0.00 0.00 72 1020.1
20260508122703 40 101 1.0 3.0 0.00 0.00 0.00 77 1020.0
20260508121803 39 83 1.0 3.0 0.00 0.00 0.00 81 1020.0
20260508120903 38 77 0.0 3.0 0.00 0.00 0.00 90 1020.0
20260508120003 37 64 0.0 1.0 0.00 0.00 0.00 96 1019.8
20260508115403 36 0 0.0 0.0 0.00 0.00 0.00 96 1019.8
20260508114524 36 0 0.0 0.0 0.00 0.01 0.00 96 1019.8
20260508113603 36 0 0.0 0.0 0.00 0.02 0.00 94 1019.3
20260508112703 36 0 0.0 0.0 0.00 0.03 0.00 93 1019.1
20260508111803 36 0 0.0 0.0 0.00 0.03 0.00 93 1019.1
20260508110903 36 0 0.0 0.0 0.00 0.04 0.00 92 1018.9
20260508110003 36 0 0.0 0.0 0.00 0.04 0.00 92 1019.0
20260508105403 36 0 0.0 0.0 0.00 0.04 0.00 91 1018.9
20260508104503 37 66 0.0 1.0 0.00 0.04 0.00 92 1018.4
20260508103603 37 0 0.0 0.0 0.00 0.04 0.00 90 1018.2
20260508102703 38 0 0.0 0.0 0.00 0.05 0.00 89 1018.2
20260508101803 38 76 0.0 1.0 0.00 0.05 0.00 88 1018.1
20260508100903 39 54 0.0 3.0 0.00 0.05 0.00 88 1018.0
20260508100003 39 96 0.0 2.0 0.00 0.05 0.00 87 1017.9
20260508095403 39 134 1.0 4.0 0.00 0.05 0.00 86 1017.7
20260508094503 40 86 1.0 3.0 0.00 0.05 0.00 87 1017.7
20260508093603 40 75 1.0 3.0 0.00 0.05 0.00 87 1017.4
20260508092724 40 55 1.0 4.0 0.00 0.05 0.00 87 1017.4
20260508091803 40 35 2.0 8.0 0.00 0.05 0.00 87 1017.3
20260508090924 40 39 1.0 6.0 0.00 0.05 0.00 87 1017.0
20260508090003 41 35 2.0 10.0 0.00 0.05 0.00 87 1017.2
20260508085424 41 38 2.0 10.0 0.00 0.05 0.00 87 1017.1
20260508084503 41 44 2.0 8.0 0.00 0.05 0.00 88 1017.1
20260508083603 41 37 2.0 8.0 0.00 0.05 0.00 85 1017.1
20260508082703 42 60 2.0 6.0 0.00 0.05 0.00 86 1017.1
20260508081803 42 39 2.0 9.0 0.00 0.05 0.00 86 1017.2
20260508080903 42 75 1.0 6.0 0.00 0.05 0.00 87 1017.1
20260508080003 42 26 2.0 10.0 0.00 0.05 0.00 87 1017.0
20260508075403 42 59 2.0 4.0 0.00 0.05 0.00 87 1017.0
20260508074503 42 46 2.0 8.0 0.00 0.05 0.00 87 1016.8
20260508073603 43 46 3.0 9.0 0.00 0.05 0.00 87 1016.8
20260508072703 43 75 2.0 8.0 0.00 0.05 0.00 88 1016.7
20260508071803 43 48 2.0 7.0 0.00 0.05 0.00 89 1016.7
20260508070903 43 50 3.0 10.0 0.00 0.05 0.00 89 1016.4
20260508070003 43 66 3.0 11.0 0.00 0.05 0.00 91 1016.4
20260508065424 43 61 3.0 11.0 0.00 0.05 0.00 91 1016.4
20260508064503 43 33 3.0 11.0 0.00 0.05 0.00 92 1016.4
20260508063603 44 50 4.0 13.0 0.00 0.05 0.00 93 1016.2
20260508062703 44 32 3.0 13.0 0.00 0.05 0.00 93 1016.1
20260508061803 44 15 3.0 9.0 0.00 0.05 0.00 94 1016.2
20260508060924 44 15 4.0 15.0 0.00 0.05 0.00 94 1016.2
20260508060003 44 26 3.0 16.0 0.00 0.05 0.00 94 1016.2
20260508055424 44 18 4.0 16.0 0.00 0.05 0.00 95 1016.4
20260508054503 44 31 4.0 21.0 0.00 0.05 0.00 96 1016.3
20260508053603 44 36 4.0 15.0 0.00 0.05 0.00 96 1016.5
20260508052703 44 6 3.0 11.0 0.00 0.05 0.00 96 1016.3
20260508051803 45 10 4.0 14.0 0.00 0.05 0.00 96 1016.7
20260508050903 45 25 4.0 10.0 0.00 0.05 0.00 97 1016.7
20260508050003 45 24 4.0 15.0 0.00 0.05 0.00 97 1016.8
20260508045403 45 19 4.0 11.0 0.00 0.05 0.00 97 1016.8
20260508044503 45 20 3.0 13.0 0.00 0.05 0.00 98 1017.0
20260508043603 45 22 3.0 9.0 0.00 0.05 0.00 98 1016.9
20260508042703 44 24 3.0 13.0 0.00 0.06 0.00 98 1016.9
20260508041803 44 38 3.0 9.0 0.00 0.06 0.00 97 1017.0
20260508040903 44 20 3.0 11.0 0.00 0.06 0.00 97 1016.9
20260508040003 44 25 3.0 9.0 0.00 0.06 0.00 97 1017.1
20260508035403 44 31 3.0 9.0 0.00 0.06 0.06 97 1017.0
20260508034503 44 22 3.0 8.0 0.00 0.06 0.06 97 1016.8
20260508033603 44 27 2.0 8.0 0.00 0.06 0.06 97 1017.0
20260508032703 44 37 2.0 8.0 0.00 0.06 0.06 97 1017.2
20260508031803 44 31 3.0 9.0 0.00 0.06 0.06 97 1017.3
20260508030924 44 30 2.0 9.0 0.00 0.06 0.06 97 1017.1
20260508030024 44 34 2.0 8.0 0.00 0.06 0.06 97 1017.2
20260508025424 44 34 2.0 11.0 0.00 0.06 0.06 97 1017.0
20260508024524 44 36 2.0 9.0 0.00 0.06 0.06 97 1016.5
20260508023603 44 22 1.0 7.0 0.00 0.06 0.06 97 1016.9
20260508022703 44 31 2.0 7.0 0.00 0.06 0.06 96 1016.8
20260508021803 44 24 2.0 4.0 0.00 0.06 0.06 96 1016.9
20260508020903 44 27 2.0 8.0 0.00 0.07 0.06 96 1016.9
20260508020003 44 20 2.0 7.0 0.00 0.07 0.06 96 1016.7
20260508015403 44 25 2.0 8.0 0.00 0.07 0.06 96 1016.7
20260508014503 45 20 2.0 8.0 0.00 0.09 0.06 96 1016.4
20260508013624 45 31 2.0 7.0 0.00 0.12 0.06 95 1016.3
20260508012724 45 27 3.0 8.0 0.00 0.13 0.06 95 1016.1
20260508011803 45 30 3.0 9.0 0.00 0.13 0.06 94 1015.7
20260508010924 45 27 3.0 9.0 0.00 0.13 0.06 93 1015.8
20260508010024 46 26 2.0 10.0 0.00 0.13 0.06 92 1015.7
20260508005403 46 28 3.0 10.0 0.00 0.14 0.06 92 1015.5
20260508004503 46 23 3.0 9.0 0.00 0.14 0.06 91 1015.4
20260508003603 46 16 2.0 7.0 0.00 0.14 0.06 90 1015.2
20260508002703 46 20 3.0 9.0 0.00 0.14 0.06 90 1015.4
20260508001803 46 21 3.0 9.0 0.00 0.14 0.06 89 1015.2
20260508000903 47 26 3.0 10.0 0.00 0.14 0.06 89 1015.3
20260508000003 47 19 3.0 10.0 0.00 0.15 0.06 89 1015.2
20260507235403 47 30 3.0 9.0 0.00 0.15 0.06 88 1015.2
20260507234503 47 22 3.0 11.0 0.00 0.16 0.06 88 1015.4
20260507233603 48 34 3.0 11.0 0.00 0.19 0.06 87 1015.4
20260507232703 48 21 2.0 8.0 0.00 0.19 0.06 87 1015.2
20260507231803 48 27 3.0 13.0 0.00 0.19 0.06 86 1015.3
20260507230903 49 36 4.0 13.0 0.00 0.20 0.06 86 1015.7
20260507230003 50 24 3.0 14.0 0.00 0.20 0.06 85 1015.1
20260507225403 50 26 3.0 14.0 0.00 0.21 0.06 84 1015.1
20260507224503 52 27 3.0 9.0 0.00 0.22 0.06 82 1014.7
20260507223603 51 26 3.0 8.0 0.00 0.22 0.06 84 1014.5
20260507222703 51 23 3.0 15.0 0.00 0.22 0.06 83 1014.7
20260507221803 53 29 4.0 13.0 0.00 0.22 0.06 81 1014.4
20260507220903 54 7 4.0 13.0 0.00 0.22 0.06 79 1014.1
20260507220003 55 9 2.0 8.0 0.00 0.23 0.06 78 1014.1
20260507215403 56 11 3.0 10.0 0.00 0.23 0.06 76 1014.1
20260507214503 56 40 4.0 19.0 0.00 0.23 0.06 77 1014.0